CW5183 Weather Reports


time (UTC)temp
C
wind
direction
speed
KPH
gust
KPH
rain 1hr
cm
rain 24hr
cm
rain mn
cm
humidity
%
barometer
mb
20260509123004 12 213 6.4 16.1 0.00 0.00 0.00 86 1005.0
20260509121503 12 200 9.7 19.3 0.00 0.00 0.00 87 1005.1
20260509120002 12 220 6.4 14.5 0.00 0.00 0.00 88 1005.0
20260509114501 11 183 6.4 19.3 0.00 0.00 0.00 89 1004.9
20260509113001 11 215 9.7 19.3 0.00 0.00 0.00 89 1005.0
20260509111605 11 215 9.7 19.3 0.00 0.00 0.00 89 1004.5
20260509110106 11 200 8.0 19.3 0.00 0.00 0.00 89 1004.5
20260509104606 11 190 8.0 20.9 0.00 0.00 0.00 89 1004.4
20260509103054 12 202 8.0 17.7 0.00 0.00 0.00 88 1004.5
20260509101554 11 190 6.4 14.5 0.00 0.00 0.00 88 1004.6
20260509100053 11 214 4.8 11.3 0.00 0.00 0.00 88 1004.8
20260509094549 12 234 6.4 14.5 0.00 0.00 0.00 88 1005.0
20260509093049 12 202 8.0 17.7 0.00 0.00 0.00 87 1005.1
20260509091547 12 230 8.0 19.3 0.00 0.00 0.00 87 1005.1
20260509090051 12 227 6.4 16.1 0.00 0.00 0.00 87 1005.2
20260509084546 12 192 8.0 16.1 0.00 0.00 0.00 86 1005.5
20260509083046 12 227 4.8 12.9 0.00 0.00 0.00 86 1005.4
20260509081544 12 207 8.0 16.1 0.00 0.00 0.00 85 1005.1
20260509080037 12 196 4.8 16.1 0.00 0.00 0.00 85 1005.1
20260509074535 12 231 6.4 16.1 0.00 0.00 0.00 84 1005.6
20260509073032 12 238 8.0 17.7 0.00 0.00 0.00 84 1005.6
20260509071529 12 217 8.0 16.1 0.00 0.00 0.00 83 1005.9
20260509070027 12 174 6.4 12.9 0.00 0.00 0.00 83 1006.1
20260509064525 13 225 4.8 16.1 0.00 0.00 0.00 83 1006.2
20260509063022 13 237 4.8 14.5 0.00 0.00 0.00 83 1006.2
20260509061520 13 218 4.8 11.3 0.00 0.00 0.00 83 1006.4
20260509060018 13 202 6.4 16.1 0.00 0.00 0.00 83 1006.7
20260509054524 13 217 6.4 17.7 0.00 0.00 0.00 82 1006.7
20260509053028 13 227 6.4 20.9 0.00 0.00 0.00 82 1006.7
20260509051516 13 192 6.4 19.3 0.00 0.00 0.00 81 1006.6
20260509050022 13 196 8.0 16.1 0.00 0.00 0.00 80 1006.7
20260509044511 14 203 3.2 20.9 0.00 0.00 0.00 78 1006.8
20260509043006 14 224 8.0 20.9 0.00 0.00 0.00 77 1006.7
20260509041506 14 199 9.7 17.7 0.00 0.00 0.00 75 1006.7
20260509040005 14 188 4.8 14.5 0.00 0.00 0.00 74 1006.8
20260509034503 14 197 8.0 17.7 0.00 0.00 0.00 74 1006.8
20260509033003 14 195 8.0 17.7 0.00 0.00 0.00 73 1006.9
20260509031504 14 188 6.4 12.9 0.00 0.00 0.00 73 1007.0
20260509030006 14 167 6.4 16.1 0.00 0.00 0.00 72 1007.0
20260509024501 13 148 6.4 11.3 0.00 0.00 0.00 73 1007.2
20260509023002 13 105 0.0 4.8 0.00 0.00 0.00 72 1007.3
20260509021502 13 105 0.0 3.2 0.00 0.00 0.00 71 1007.3
20260509020059 13 105 0.0 4.8 0.00 0.00 0.00 71 1007.3
20260509014610 13 105 0.0 4.8 0.00 0.00 0.00 71 1007.2
20260509013111 13 105 1.6 6.4 0.00 0.00 0.00 70 1007.3
20260509011606 13 115 1.6 6.4 0.00 0.00 0.00 69 1007.1
20260509010058 13 114 3.2 6.4 0.00 0.00 0.00 68 1007.2
20260509004606 13 97 3.2 9.7 0.00 0.00 0.00 65 1007.2
20260509003128 13 113 1.6 11.3 0.00 0.00 0.00 63 1007.2
20260509001605 13 113 8.0 14.5 0.00 0.00 0.00 61 1007.3
20260509000111 13 122 8.0 14.5 0.00 0.00 0.00 60 1007.4
20260508234554 13 123 6.4 14.5 0.00 0.00 0.00 59 1007.5
20260508233054 13 127 9.7 17.7 0.00 0.00 0.00 58 1007.6
20260508231554 14 119 6.4 17.7 0.00 0.00 0.00 60 1007.7
20260508230054 14 120 9.7 17.7 0.00 0.00 0.00 59 1007.8
20260508224602 14 75 9.7 24.1 0.00 0.03 0.00 58 1007.9
20260508223052 14 159 6.4 22.5 0.00 0.03 0.00 56 1007.9
20260508221551 15 107 8.0 17.7 0.00 0.03 0.00 56 1007.9
20260508220053 14 124 11.3 20.9 0.00 0.03 0.00 59 1008.0
20260508214553 15 132 8.0 20.9 0.00 0.05 0.00 59 1008.2
20260508213049 15 105 4.8 14.5 0.00 0.05 0.00 62 1008.3
20260508211549 14 113 8.0 19.3 0.00 0.05 0.00 68 1008.3
20260508210048 13 109 9.7 22.5 0.00 0.05 0.00 68 1008.3
20260508204548 15 119 8.0 17.7 0.00 0.05 0.00 66 1008.4
20260508203051 13 97 9.7 14.5 0.00 0.05 0.00 68 1008.7
20260508201547 15 75 8.0 17.7 0.00 0.05 0.00 63 1008.9
20260508200056 15 68 8.0 16.1 0.00 0.05 0.00 60 1009.1
20260508194545 15 100 12.9 20.9 0.00 0.05 0.00 58 1009.3
20260508193054 15 117 3.2 17.7 0.00 0.05 0.00 60 1009.5
20260508191543 15 108 11.3 19.3 0.00 0.05 0.00 55 1009.6
20260508190046 16 115 6.4 16.1 0.00 0.05 0.00 58 1009.7
20260508184548 15 76 9.7 17.7 0.00 0.05 0.00 56 1010.0
20260508183049 15 126 11.3 19.3 0.00 0.05 0.00 55 1010.2
20260508181542 15 101 9.7 19.3 0.00 0.05 0.00 53 1010.3
20260508180038 15 66 3.2 14.5 0.00 0.05 0.00 57 1010.6
20260508174556 15 99 6.4 16.1 0.00 0.05 0.00 56 1010.7
20260508173035 15 109 8.0 17.7 0.00 0.05 0.00 57 1011.0
20260508171536 15 107 11.3 17.7 0.00 0.05 0.00 57 1011.2
20260508170036 15 98 8.0 17.7 0.00 0.05 0.00 58 1011.4
20260508164534 14 101 11.3 20.9 0.00 0.05 0.00 58 1011.7
20260508163050 15 83 4.8 16.1 0.00 0.05 0.00 64 1011.9
20260508161530 14 103 9.7 16.1 0.00 0.05 0.00 62 1011.9
20260508160030 15 110 8.0 16.1 0.00 0.05 0.00 65 1012.1
20260508154529 14 100 8.0 16.1 0.00 0.05 0.00 63 1012.2
20260508153031 15 119 6.4 12.9 0.00 0.05 0.00 63 1012.3
20260508151533 15 85 6.4 11.3 0.00 0.05 0.00 64 1012.3
20260508150028 15 52 3.2 8.0 0.00 0.05 0.00 67 1012.3
20260508144522 14 129 0.0 6.4 0.00 0.05 0.00 72 1012.3
20260508143018 13 128 1.6 8.0 0.00 0.05 0.00 73 1012.6
20260508141515 12 134 0.0 4.8 0.00 0.05 0.00 75 1012.8
20260508140013 11 103 0.0 6.4 0.00 0.05 0.00 79 1012.5
20260508134509 11 108 0.0 9.7 0.00 0.05 0.00 81 1012.5
20260508133009 11 99 4.8 9.7 0.00 0.05 0.00 80 1012.6
20260508131507 10 155 1.6 8.0 0.00 0.05 0.00 81 1012.5
20260508130006 10 170 3.2 6.4 0.00 0.05 0.00 82 1012.8
20260508124506 9 273 0.0 4.8 0.00 0.05 0.00 86 1012.8